Beaumont, TX

2:47 PM CDT on May 26, 2017 (GMT -0500)
Southeast Texas Regional

Weather History for KBPT - December, 2012

Change the Weather History Date:

Thursday, December 27, 2012

  Actual Average Record
Temperature  
Mean Temperature 42 °F 53 °F  
Max Temperature 53 °F 62 °F 82 °F (2016)
Min Temperature 31 °F 43 °F 29 °F (1920)
Degree Days  
Heating Degree Days 23 13  
Month to date heating degree days 190 304  
Since 1 July heating degree days 383 499  
Cooling Degree Days 0 1  
Month to date cooling degree days 64 27  
Year to date cooling degree days 3199 2882  
Moisture  
Dew Point 40 °F    
Average Humidity 81    
Maximum Humidity 96    
Minimum Humidity 66    
Precipitation  
Precipitation T in 0.19 in 3.25 in (1982)
Month to date precipitation 5.44 4.58  
Year to date precipitation 62.80 59.76  
Snow  
Snow 0.00 in 0.00 in T in (1915)
Month to date snowfall 0.0 0.0  
Since 1 July snowfall 0.0 0.0  
Snow Depth 0.00 in    
Sea Level Pressure  
Sea Level Pressure 30.02 in    
Wind  
Wind Speed 11 mph (East)    
Max Wind Speed 22 mph    
Max Gust Speed 28 mph    
Visibility 9 miles    
Events Rain    
T = Trace of Precipitation, MM = Missing Value Source: NWS Daily Summary

Daily Weather History Graph

Daily Weather History Graph

Search for Another Location

Airport or City:

Trip Planner

Search our weather history database for the weather conditions in past years. The results will help you decide how hot, cold, wet, or windy it might be!

Date:

Astronomy

Dec. 27, 2012 Rise Set
Actual Time 7:10 AM CST 5:24 PM CST
Civil Twilight 6:44 AM CST 5:50 PM CST
Nautical Twilight 6:14 AM CST 6:20 PM CST
Astronomical Twilight 5:45 AM CST 6:49 PM CST
Moon 5:05 PM CST (12/27) 6:24 AM CST (12/27)
Length of Visible Light 11h 06m
Length of Day
10h 14m
Full, 100% of the Moon is Illuminated
Dec 27
Full
Dec 28
Full
Jan 4
Last Quarter
Jan 11
New
Jan 18
First Quarter

Hourly Weather History & Observations

Time (CST) Temp. Windchill Dew Point Humidity Pressure Visibility Wind Dir Wind Speed Gust Speed Precip Events Conditions
12:53 AM 35.1 °F 30.1 °F 30.0 °F 82% 30.13 in 10.0 mi NE 5.8 mph - N/A   Clear
1:53 AM 35.1 °F 31.0 °F 30.0 °F 82% 30.14 in 10.0 mi NE 4.6 mph - N/A   Clear
2:53 AM 34.0 °F 31.0 °F 30.9 °F 89% 30.14 in 10.0 mi NE 3.5 mph - N/A   Clear
3:53 AM 34.0 °F - 30.9 °F 89% 30.13 in 9.0 mi Calm Calm - N/A   Clear
4:53 AM 32.0 °F - 30.0 °F 92% 30.14 in 8.0 mi Calm Calm - N/A   Clear
5:53 AM 34.0 °F 27.2 °F 32.0 °F 92% 30.13 in 8.0 mi NE 8.1 mph - N/A   Partly Cloudy
6:53 AM 35.1 °F 27.4 °F 30.9 °F 85% 30.12 in 10.0 mi NE 10.4 mph - N/A   Clear
7:53 AM 35.1 °F 27.9 °F 32.0 °F 89% 30.12 in 8.0 mi NE 9.2 mph - N/A   Clear
8:53 AM 39.0 °F 31.0 °F 35.1 °F 86% 30.11 in 6.0 mi East 13.8 mph - N/A   Scattered Clouds
9:53 AM 44.1 °F 37.4 °F 37.0 °F 76% 30.11 in 9.0 mi East 13.8 mph - N/A   Clear
10:53 AM 48.0 °F - 37.9 °F 68% 30.10 in 10.0 mi ENE 9.2 mph - N/A   Overcast
11:53 AM 50.0 °F - 39.0 °F 66% 30.06 in 10.0 mi East 11.5 mph - N/A   Overcast
12:53 PM 51.1 °F - 41.0 °F 68% 30.02 in 10.0 mi East 13.8 mph - N/A   Overcast
1:19 PM 51.8 °F - 42.8 °F 71% 30.02 in 10.0 mi East 9.2 mph - N/A   Overcast
1:44 PM 51.8 °F - 42.8 °F 71% 29.99 in 10.0 mi East 11.5 mph - N/A   Overcast
1:53 PM 52.0 °F - 43.0 °F 71% 29.99 in 10.0 mi ESE 12.7 mph - N/A   Overcast
2:38 PM 53.6 °F - 44.6 °F 72% 29.98 in 10.0 mi East 12.7 mph - N/A   Overcast
2:53 PM 53.1 °F - 44.1 °F 71% 29.98 in 10.0 mi East 12.7 mph - N/A   Overcast
3:53 PM 52.0 °F - 45.0 °F 77% 29.96 in 10.0 mi East 12.7 mph - N/A   Overcast
4:53 PM 52.0 °F - 44.1 °F 74% 29.95 in 10.0 mi East 13.8 mph - 0.00 in   Overcast
5:53 PM 50.0 °F - 46.4 °F 87% 29.93 in 7.0 mi East 19.6 mph 27.6 mph N/A Rain Light Rain
6:53 PM 51.1 °F - 46.0 °F 83% 29.94 in 10.0 mi East 12.7 mph - 0.00 in   Overcast
7:24 PM 51.8 °F - 46.4 °F 82% 29.93 in 10.0 mi East 16.1 mph - N/A   Overcast
7:34 PM 51.8 °F - 46.4 °F 82% 29.93 in 10.0 mi East 13.8 mph - N/A   Overcast
7:53 PM 52.0 °F - 46.9 °F 83% 29.94 in 10.0 mi East 12.7 mph - N/A   Overcast
8:53 PM 53.1 °F - 46.9 °F 80% 29.92 in 10.0 mi East 15.0 mph - N/A   Overcast
9:34 PM 51.8 °F - 48.2 °F 88% 29.91 in 9.0 mi East 15.0 mph 24.2 mph N/A   Overcast
9:53 PM 52.0 °F - 48.0 °F 86% 29.91 in 8.0 mi East 15.0 mph - N/A   Overcast
10:53 PM 52.0 °F - 48.9 °F 89% 29.91 in 6.0 mi East 16.1 mph - 0.00 in Rain Light Rain
11:53 PM 52.0 °F - 51.1 °F 97% 29.89 in 6.0 mi East 12.7 mph - 0.00 in Rain Light Rain